Weather History for EGDM - December, 2012

Change the Weather History Date:

Thursday, December 6, 2012

  Actual Average Record
Temperature  
Mean Temperature 33 °F -  
Max Temperature 42 °F 42 °F 57 °F (2007)
Min Temperature 24 °F 35 °F 24 °F (2010)
Degree Days  
Heating Degree Days 32    
Moisture  
Dew Point 30 °F    
Average Humidity 86    
Maximum Humidity 93    
Minimum Humidity 75    
Precipitation  
Precipitation 0.12 in - - ()
Sea Level Pressure  
Sea Level Pressure 29.89 in    
Wind  
Wind Speed 7 mph ()    
Max Wind Speed 23 mph    
Max Gust Speed 30 mph    
Visibility 7.4 miles    
Events Rain    
Averages and records for this station are not official NWS values.
T = Trace of Precipitation, MM = Missing Value Source: Averaged Metar Reports

Daily Weather History Graph

Daily Weather History Graph

Search for Another Location

Airport or City:

Trip Planner

Search our weather history database for the weather conditions in past years. The results will help you decide how hot, cold, wet, or windy it might be!

Date:

Astronomy

Dec. 06, 2012 Rise Set
Actual Time 7:55 AM GMT 4:00 PM GMT
Civil Twilight 7:16 AM GMT 4:39 PM GMT
Nautical Twilight 6:34 AM GMT 5:22 PM GMT
Astronomical Twilight 5:54 AM GMT 6:02 PM GMT
Moon No Moon Rise 12:03 PM GMT (12/6)
Length of Visible Light 9h 23m
Length of Day
8h 04m
Waning Gibbous, 52% of the Moon is Illuminated
Dec 6
Waning Gibbous
Dec 6
Last Quarter
Dec 13
New
Dec 20
First Quarter
Dec 28
Full

Hourly Weather History & Observations

Time (GMT) Temp. Windchill Dew Point Humidity Pressure Visibility Wind Dir Wind Speed Gust Speed Precip Events Conditions
12:50 AM 28.4 °F 23.3 °F 24.8 °F 86% 30.04 in 6.2 mi North 4.6 mph - N/A   Unknown
1:50 AM 26.6 °F 22.6 °F 23.0 °F 86% 30.06 in 6.2 mi WNW 3.5 mph - N/A   Unknown
2:50 AM 26 °F - 23 °F 83% 30.10 in 10 mi WNW 4.6 mph - -   Scattered Clouds
2:50 AM 26.6 °F 21.2 °F 23.0 °F 86% 30.06 in 6.2 mi WNW 4.6 mph - N/A   Partly Cloudy
3:50 AM 26.6 °F 21.2 °F 23.0 °F 86% 30.06 in 6.2 mi WNW 4.6 mph - N/A   Scattered Clouds
4:50 AM 26.6 °F 21.2 °F 23.0 °F 86% 30.04 in 6.2 mi West 4.6 mph - N/A   Mostly Cloudy
5:50 AM 27 °F - 23 °F 80% 30.09 in 9 mi WSW 3.5 mph - -   Partly Cloudy
5:50 AM 26.6 °F 22.6 °F 23.0 °F 86% 30.04 in 6.2 mi WSW 3.5 mph - N/A   Scattered Clouds
6:50 AM 26.6 °F 21.2 °F 24.8 °F 93% 30.06 in - SW 4.6 mph - N/A   Clear
7:50 AM 24.8 °F 17.9 °F 23.0 °F 93% 30.04 in - South 5.8 mph - N/A   Clear
8:50 AM 26 °F - 24 °F 86% 30.09 in 12 mi South 6.9 mph - -   Mostly Cloudy
8:50 AM 26.6 °F 19.1 °F 23.0 °F 86% 30.06 in - South 6.9 mph - N/A   Clear
9:50 AM 28.4 °F 19.1 °F 26.6 °F 93% 30.04 in - South 10.4 mph - N/A   Clear
10:50 AM 30.2 °F 21.3 °F 28.4 °F 93% 30.01 in - South 10.4 mph - N/A   Clear
11:50 AM 33 °F - 28 °F 75% 30.01 in 14 mi South 8.1 mph - -   Overcast
11:50 AM 33.8 °F 27.0 °F 28.4 °F 81% 29.98 in 6.2 mi South 8.1 mph - N/A   Overcast
12:50 PM 33.8 °F 25.8 °F 28.4 °F 81% 29.95 in 6.2 mi South 10.4 mph - N/A   Overcast
1:50 PM 35.6 °F 28.6 °F 32.0 °F 87% 29.92 in 6.2 mi South 9.2 mph - N/A   Overcast
2:50 PM 35.6 °F 28.6 °F 32.0 °F 87% 29.89 in 6.2 mi South 9.2 mph - N/A   Overcast
3:00 PM 36 °F - 32 °F 81% 29.91 in 12 mi South 9.2 mph - -   Overcast
3:50 PM 35.6 °F 28.0 °F 32.0 °F 87% 29.86 in 6.2 mi SSW 10.4 mph - N/A   Overcast
4:50 PM 35.6 °F 28.0 °F 33.8 °F 93% 29.80 in 6.2 mi South 10.4 mph - N/A   Overcast
5:50 PM 36 °F - 34 °F 88% 29.80 in 9 mi SSW 11.5 mph - - Rain Rain
5:50 PM 35.6 °F 27.5 °F 33.8 °F 93% 29.77 in 6.2 mi SSW 11.5 mph - N/A Rain Rain
6:50 PM 39.2 °F 33.0 °F 35.6 °F 87% 29.74 in 6.2 mi SW 9.2 mph - N/A Rain Light Rain
7:50 PM 39.2 °F 30.5 °F 35.6 °F 87% 29.68 in 6.2 mi SSW 16.1 mph - N/A Rain Light Rain Showers
8:50 PM 41 °F - 36 °F 75% 29.64 in 22 mi SW 16.1 mph - - Rain Light Rain
8:50 PM 41.0 °F 32.8 °F 35.6 °F 81% 29.62 in 6.2 mi SW 16.1 mph - N/A Rain Light Rain
9:50 PM 41.0 °F 31.1 °F 37.4 °F 87% 29.56 in 6.2 mi SW 23.0 mph - N/A Rain Light Rain
10:50 PM 42.8 °F 34.5 °F 39.2 °F 87% 29.50 in 6.2 mi WSW 18.4 mph 29.9 mph N/A Rain Light Rain
11:50 PM 41 °F - 38 °F 86% 29.52 in 28 mi West 20.7 mph - - Rain Light Rain
11:50 PM 41.0 °F 31.6 °F 39.2 °F 93% 29.50 in 6.2 mi West 20.7 mph - N/A Rain Light Rain